Weather History for Hall Beach, NU

Change the Weather History Date:

Wednesday, January 9, 2013

  Actual Average Record
Temperature  
Mean Temperature -12 °F -  
Max Temperature -7 °F -17 °F 17 °F (2003)
Min Temperature -18 °F -30 °F -43 °F (2004)
Degree Days  
Heating Degree Days 78    
Moisture  
Dew Point -16 °F    
Average Humidity 81    
Maximum Humidity 84    
Minimum Humidity 76    
Precipitation  
Precipitation 0.00 in - - ()
Sea Level Pressure  
Sea Level Pressure 29.48 in    
Wind  
Wind Speed 10 mph ()    
Max Wind Speed 18 mph    
Max Gust Speed -    
Visibility 5.6 miles    
Events Snow    
Averages and records for this station are not official NWS values.
T = Trace of Precipitation, MM = Missing Value Source: Averaged Metar Reports

Daily Weather History Graph

Daily Weather History Graph

Search for Another Location

Airport:

Trip Planner

Search our weather history database for the weather conditions in past years. The results will help you decide how hot, cold, wet, or windy it might be!

Date:

Astronomy

Jan. 09, 2013 Rise Set
Actual Time 12:14 PM EST 12:50 PM EST
Civil Twilight 9:39 AM EST 3:25 PM EST
Nautical Twilight 8:12 AM EST 4:53 PM EST
Astronomical Twilight 7:00 AM EST 6:05 PM EST
Moon 9:45 AM EST (1/9) 10:57 AM EST (1/9)
Length of Visible Light 5h 45m
Length of Day
0h 35m
Waning Crescent, 6% of the Moon is Illuminated
Jan 9
Waning Crescent
Jan 11
New
Jan 18
First Quarter
Jan 26
Full
Feb 3
Last Quarter

Hourly Weather History & Observations

Time (EST) Temp. Windchill Dew Point Humidity Pressure Visibility Wind Dir Wind Speed Gust Speed Precip Events Conditions
12:00 AM -11.2 °F -27.8 °F -16.6 °F 77% 29.55 in 9.0 mi East 8.1 mph - N/A Snow Light Snow
12:06 AM -11.2 °F -27.8 °F -16.6 °F 77% 29.55 in 5.0 mi East 8.1 mph - N/A Snow Light Snow
12:24 AM -13.0 °F -31.3 °F -16.6 °F 84% 29.54 in 6.0 mi East 9.2 mph - N/A Snow Light Snow
12:46 AM -13.0 °F -31.3 °F -16.6 °F 84% 29.54 in 5.0 mi East 9.2 mph - N/A Snow Light Snow
12:54 AM -11.2 °F -30.1 °F -16.6 °F 77% 29.54 in 2.5 mi East 10.4 mph - N/A Snow Light Snow
12:57 AM -11.2 °F -31.1 °F -14.8 °F 84% 29.54 in 3.0 mi East 11.5 mph - N/A Snow Light Snow
1:00 AM -11.2 °F -30.1 °F -14.8 °F 84% 29.54 in 4.0 mi ENE 10.4 mph - N/A Snow Light Snow
1:02 AM -11.2 °F -30.1 °F -14.8 °F 84% 29.54 in 6.0 mi East 10.4 mph - N/A Snow Light Snow
1:30 AM -11.2 °F -30.1 °F -14.8 °F 84% 29.54 in 9.0 mi East 10.4 mph - N/A   Overcast
1:34 AM -11.2 °F -29.0 °F -14.8 °F 84% 29.54 in 9.0 mi East 9.2 mph - N/A Snow Light Snow
1:41 AM -11.2 °F -30.1 °F -14.8 °F 84% 29.54 in 5.0 mi East 10.4 mph - N/A Snow Light Snow
1:54 AM -11.2 °F -29.0 °F -14.8 °F 84% 29.53 in 6.0 mi East 9.2 mph - N/A Snow Light Snow
2:00 AM -11.2 °F -29.0 °F -14.8 °F 84% 29.54 in 9.0 mi East 9.2 mph - N/A Snow Light Snow
2:08 AM -11.2 °F -29.0 °F -16.6 °F 77% 29.53 in 9.0 mi East 9.2 mph - N/A   Overcast
2:17 AM -11.2 °F -27.8 °F -16.6 °F 77% 29.53 in 9.0 mi East 8.1 mph - N/A Snow Light Snow
3:00 AM -11.2 °F -30.1 °F -14.8 °F 84% 29.53 in 6.0 mi East 10.4 mph - N/A Snow Light Snow
3:42 AM -11.2 °F -31.1 °F -14.8 °F 84% 29.52 in 9.0 mi East 11.5 mph - N/A   Mostly Cloudy
3:50 AM -11.2 °F -31.1 °F -14.8 °F 84% 29.52 in 9.0 mi East 11.5 mph - N/A Snow Light Snow
4:00 AM -9.4 °F -28.9 °F -14.8 °F 77% 29.52 in 9.0 mi East 11.5 mph - N/A Snow Light Snow
4:19 AM -9.4 °F -27.9 °F -13.0 °F 84% 29.52 in 7.0 mi East 10.4 mph - N/A Snow Light Snow
4:27 AM -9.4 °F -28.9 °F -13.0 °F 84% 29.52 in 7.0 mi East 11.5 mph - N/A Snow Light Snow
4:40 AM -9.4 °F -27.9 °F -13.0 °F 84% 29.52 in 5.0 mi East 10.4 mph - N/A Snow Light Snow
4:48 AM -9.4 °F -27.9 °F -13.0 °F 84% 29.52 in 6.0 mi East 10.4 mph - N/A Snow Light Snow
5:00 AM -9.4 °F -28.9 °F -13.0 °F 84% 29.52 in 6.0 mi East 11.5 mph - N/A Snow Light Snow
5:02 AM -9.4 °F -28.9 °F -13.0 °F 84% 29.52 in 5.0 mi East 11.5 mph - N/A Snow Light Snow
5:05 AM -9.4 °F -28.9 °F -13.0 °F 84% 29.51 in 6.0 mi East 11.5 mph - N/A Snow Light Snow
5:23 AM -9.4 °F -28.9 °F -13.0 °F 84% 29.51 in 5.0 mi East 11.5 mph - N/A Snow Light Snow
5:54 AM -9.4 °F -28.9 °F -13.0 °F 84% 29.51 in 6.0 mi East 11.5 mph - N/A Snow Light Snow
6:00 AM -9.4 °F -28.9 °F -14.8 °F 77% 29.51 in 6.0 mi East 11.5 mph - N/A Snow Light Snow
8:00 AM -7.6 °F -27.5 °F -13.0 °F 77% 29.49 in 5.0 mi East 12.7 mph - N/A Snow Light Snow
9:00 AM -11.2 °F -31.1 °F -14.8 °F 84% 29.48 in 10.0 mi ENE 11.5 mph - N/A Snow Light Snow
10:00 AM -11.2 °F -31.1 °F -14.8 °F 84% 29.47 in 4.0 mi East 11.5 mph - N/A Snow Light Snow
12:00 PM -9.4 °F -29.8 °F -14.8 °F 77% 29.44 in 12.0 mi East 12.7 mph - N/A Snow Light Snow
1:00 PM -9.4 °F -28.9 °F -14.8 °F 77% 29.43 in 10.0 mi ENE 11.5 mph - N/A Snow Light Snow
2:00 PM -11.2 °F -30.1 °F -16.6 °F 77% 29.42 in 12.0 mi ENE 10.4 mph - N/A Snow Light Snow
3:00 PM -11.2 °F -32.1 °F -16.6 °F 77% 29.42 in 12.0 mi NE 12.7 mph - N/A Snow Light Snow
4:00 PM -11.2 °F -32.9 °F -14.8 °F 84% 29.41 in 8.0 mi NE 13.8 mph - N/A Snow Light Snow
5:00 PM -11.2 °F -32.1 °F -16.6 °F 77% 29.41 in 3.0 mi NNE 12.7 mph - N/A Snow Light Snow
6:00 PM -11.2 °F -32.9 °F -16.6 °F 77% 29.41 in 6.0 mi NNE 13.8 mph - N/A Snow Light Snow
7:00 PM -11.2 °F -32.9 °F -16.6 °F 77% 29.40 in 4.0 mi NNE 13.8 mph - N/A Snow Light Snow
7:06 PM -11.2 °F -34.4 °F -16.6 °F 77% 29.40 in 2.0 mi NNE 16.1 mph - N/A Snow Light Snow
8:00 PM -13.0 °F -33.4 °F -16.6 °F 84% 29.40 in 1.8 mi NE 11.5 mph - N/A Snow Light Snow
8:20 PM -13.0 °F -34.3 °F -16.6 °F 84% 29.40 in 2.2 mi NNE 12.7 mph - N/A Snow Light Snow
8:23 PM -13.0 °F -33.4 °F -16.6 °F 84% 29.40 in 3.0 mi NNE 11.5 mph - N/A Snow Light Snow
8:37 PM -13.0 °F -33.4 °F -18.4 °F 77% 29.41 in 2.5 mi North 11.5 mph - N/A Snow Light Snow
8:45 PM -16.6 °F -38.9 °F -20.2 °F 84% 29.41 in 2.5 mi North 12.7 mph - N/A Snow Light Snow
8:48 PM -16.6 °F -38.9 °F -20.2 °F 84% 29.40 in 3.0 mi North 12.7 mph - N/A Snow Light Snow
9:00 PM -14.8 °F -36.6 °F -20.2 °F 77% 29.40 in 2.5 mi North 12.7 mph - N/A Snow Light Snow
9:10 PM -14.8 °F -37.5 °F -18.4 °F 84% 29.41 in 2.0 mi North 13.8 mph - N/A Snow Light Snow
9:22 PM -14.8 °F -39.8 °F -20.2 °F 77% 29.41 in 1.5 mi NNW 17.3 mph - N/A Snow Light Snow
10:00 PM -16.6 °F -42.9 °F -20.2 °F 84% 29.41 in 1.5 mi North 18.4 mph - N/A Snow Light Snow
11:00 PM -16.6 °F -42.1 °F -22.0 °F 76% 29.42 in 1.8 mi North 17.3 mph - N/A Snow Light Snow
11:28 PM -18.4 °F -43.7 °F -22.0 °F 84% 29.42 in 2.2 mi North 16.1 mph - N/A Snow Light Snow
11:33 PM -18.4 °F -43.7 °F -22.0 °F 84% 29.42 in 2.0 mi North 16.1 mph - N/A Snow Light Snow
11:48 PM -18.4 °F -43.7 °F -22.0 °F 84% 29.43 in 2.2 mi NNW 16.1 mph - N/A Snow Light Snow